Meteo Giornale » Osservazioni meteo Italia » Cuneo-Levaldigi

ore: 19:50 - Osservazioni Meteo Cuneo-Levaldigi
Lat. 44° 32' N Lon. 7° 37' E Alt. 396 metri s.l.m.

sereno Europe/Rome

21 °C

Sereno

Temp. 24 Ore

18 °C

25 °C

Nord-Ovest

7.4 Km/h

Dew point 18 °C

Umidità 82 %

Visibilità  10 Km

Il sole sorge alle ore 07:08

Il sole tramonta alle ore 19:40

Data e Ora Cielo e Fenomeni T °C DP °C Um. % Pres. hPa Vis. km Vento km/h
Oggi h: 19:50 sereno Sereno 21 18 82 1013 10 NO 7.4
Oggi h: 19:20 sereno Sereno 21 18 82 1013 10 O/NO 7.4
Oggi h: 18:50 coperto_pioggia Pioggia Debole 22 19 83 1013 10 O 7.4
Oggi h: 18:20 coperto_pioggia Pioggia Debole 22 19 83 1013 10 N 3.7
Oggi h: 17:20 nuvoloso_temporali Temporale nelle Vicinanze 23 17 68 1013 10 N/NO 7.4
Oggi h: 16:50 sereno Sereno 24 17 64 1013 10 N 9.3
Oggi h: 16:20 sereno Sereno 25 17 61 1013 10 N 9.3
Oggi h: 15:50 sereno Sereno 24 18 69 1014 10 N 7.4
Oggi h: 15:20 sereno Sereno 24 18 69 1014 10 N/NO 7.4
Oggi h: 14:50 sereno Sereno 25 17 61 1014 10 N 5.5
Oggi h: 14:20 sereno Sereno 24 18 69 1015 10 N 5.5
Oggi h: 13:50 sereno Sereno 23 18 73 1015 10 N 5.5
Oggi h: 13:20 sereno Sereno 23 18 73 1016 10 N 5.5
Oggi h: 12:50 sereno Sereno 22 18 78 1016 10 N 5.5
Oggi h: 12:20 sereno Sereno 22 18 78 1016 10 N 3.7
Oggi h: 11:50 sereno Sereno 22 18 78 1016 10 N 5.5
Oggi h: 11:20 sereno Sereno 21 18 82 1016 10 N 5.5
Oggi h: 10:50 sereno Sereno 22 17 73 1016 10 N 3.7
Oggi h: 10:20 sereno Sereno 22 18 78 1016 10 N 5.5
Oggi h: 09:50 sereno Sereno 21 18 82 1016 10 N/NO 7.4
Oggi h: 09:20 sereno Sereno 20 18 88 1016 8 N 3.7
Oggi h: 08:50 sereno Sereno 19 18 93 1016 8 N 5.5
Oggi h: 08:20 coperto_pioggia Pioggia Debole 19 18 93 1016 7 N 5.5
Oggi h: 07:50 coperto_pioggia Pioviggine Leggera 18 18 100 1016 7 S/SO 7.4
Oggi h: 07:20 sereno Sereno 18 17 93 1015 9 N 1.8
Oggi h: 06:50 sereno Sereno 18 17 93 1015 10 N 1.8
Oggi h: 05:50 sereno Sereno 18 17 93 1015 8 N 3.7
Oggi h: 05:20 foschia Foschia 18 18 100 1015 4 N 3.7
Oggi h: 04:50 foschia Foschia 18 17 93 1015 3 N 3.7
Oggi h: 04:20 foschia Foschia 19 18 93 1016 5 N 3.7
Oggi h: 03:50 foschia Foschia 18 18 100 1016 5 N 5.5
Oggi h: 03:20 foschia Foschia 19 18 93 1016 5 N 3.7
Oggi h: 02:50 coperto_pioggia Pioggia Debole 19 18 93 1016 6 N 3.7
Oggi h: 02:20 coperto_pioggia Pioviggine 19 17 88 1017 9 O/SO 7.4
Oggi h: 01:50 sereno Sereno 20 17 82 1017 10 O/NO 7.4
Oggi h: 01:20 sereno Sereno 19 17 88 1017 9 N 5.5
Oggi h: 00:50 sereno Sereno 20 17 82 1016 8 N 3.7
Oggi h: 00:20 sereno Sereno 19 17 88 1017 8 N 3.7
Ieri h: 23:50 sereno Sereno 19 17 88 1017 7 N 1.8
Ieri h: 23:20 sereno Sereno 19 17 88 1016 8 N 5.5
Ieri h: 22:50 sereno Sereno 19 17 88 1016 8 SO 7.4
Ieri h: 22:20 sereno Sereno 19 17 88 1017 8 S/SO 9.3
Ieri h: 21:50 sereno Sereno 20 17 82 1016 10 N 3.7
Ieri h: 21:20 sereno Sereno 21 18 82 1017 10 NO 7.4
Ieri h: 20:50 sereno Sereno 21 18 82 1016 10 NO 7.4